User: anonymous
Location: Voyageurs National Park
(48.5020°N, 92.9292°W)
Time: 09:29:12
(UTC-05:00)
Language:

Terra - Orbit

View from above orbital plane
View from above orbital plane
View from above satellite
View from above satellite

Ground track
Ground track

The orbit data is extracted from the following two-line orbital elements,

1 25994U 99068A   14275.08923292  .00000681  00000-0  16122-3 0  6879
2 25994 098.2018 348.3012 0001479 088.9211 271.2181 14.57098581786630
Epoch (UTC): 02 October 2014 02:08:29
Eccentricity: 0.0001479
inclination: 98.2018°
perigee height: 701 km
apogee height: 703 km
right ascension of ascending node: 348.3012°
argument of perigee: 88.9211°
revolutions per day: 14.57098581
mean anomaly at epoch: 271.2181°
orbit number at epoch: 78663

The dashed part of the orbit path shows where the satellite is in the earth's shadow,  

DLR